| time (UTC) | temp C | wind direction | speed KPH | gust KPH | rain 1hr cm | rain 24hr cm | rain mn cm | humidity % | barometer mb |
| 20260831214445 | 22 | 318 | 1.6 | 1.6 | 0.00 | 0.00 | 0.00 | 71 | 1016.0 |
| 20260831213940 | 22 | 312 | 0.0 | 1.6 | 0.00 | 0.00 | 0.00 | 71 | 1015.8 |
| 20260831213443 | 23 | 312 | 0.0 | 3.2 | 0.00 | 0.00 | 0.00 | 71 | 1016.0 |
| 20260831212447 | 23 | 315 | 3.2 | 4.8 | 0.00 | 0.00 | 0.00 | 73 | 1015.8 |
| 20260831211944 | 23 | 313 | 3.2 | 3.2 | 0.00 | 0.00 | 0.00 | 73 | 1015.6 |
| 20260831211445 | 23 | 318 | 0.0 | 6.4 | 0.00 | 0.00 | 0.00 | 72 | 1015.9 |
| 20260831205943 | 23 | 310 | 1.6 | 3.2 | 0.00 | 0.00 | 0.00 | 71 | 1016.3 |
| 20260831205444 | 23 | 309 | 0.0 | 4.8 | 0.00 | 0.00 | 0.00 | 69 | 1015.9 |
| 20260831204946 | 23 | 309 | 0.0 | 4.8 | 0.00 | 0.00 | 0.00 | 68 | 1015.8 |
| 20260831204445 | 23 | 312 | 0.0 | 4.8 | 0.00 | 0.00 | 0.00 | 69 | 1015.6 |
| 20260831203945 | 23 | 314 | 1.6 | 4.8 | 0.00 | 0.00 | 0.00 | 69 | 1015.9 |
| 20260831203446 | 23 | 314 | 1.6 | 12.9 | 0.00 | 0.00 | 0.00 | 66 | 1015.8 |
| 20260831202945 | 24 | 325 | 4.8 | 12.9 | 0.00 | 0.00 | 0.00 | 68 | 1015.7 |
| 20260831201948 | 24 | 326 | 6.4 | 11.3 | 0.00 | 0.00 | 0.00 | 68 | 1015.3 |
| 20260831201445 | 23 | 325 | 3.2 | 11.3 | 0.00 | 0.00 | 0.00 | 63 | 1015.7 |
| 20260831200943 | 23 | 313 | 6.4 | 9.7 | 0.00 | 0.00 | 0.00 | 63 | 1015.4 |
| 20260831195945 | 23 | 310 | 3.2 | 3.2 | 0.00 | 0.00 | 0.00 | 56 | 1015.3 |
| 20260831195441 | 23 | 310 | 1.6 | 11.3 | 0.00 | 0.00 | 0.00 | 57 | 1015.4 |
| 20260831194943 | 23 | 317 | 3.2 | 11.3 | 0.00 | 0.00 | 0.00 | 56 | 1015.3 |
| 20260831194442 | 23 | 323 | 3.2 | 6.4 | 0.00 | 0.00 | 0.00 | 54 | 1015.3 |
| 20260831193936 | 24 | 311 | 1.6 | 6.4 | 0.00 | 0.00 | 0.00 | 54 | 1015.0 |
| 20260831193436 | 25 | 315 | 3.2 | 6.4 | 0.00 | 0.00 | 0.00 | 53 | 1015.3 |
| 20260831192934 | 25 | 319 | 1.6 | 6.4 | 0.00 | 0.00 | 0.00 | 51 | 1015.1 |
| 20260831192417 | 25 | 314 | 3.2 | 9.7 | 0.00 | 0.00 | 0.00 | 50 | 1015.0 |
| 20260831191917 | 26 | 320 | 3.2 | 9.7 | 0.00 | 0.00 | 0.00 | 51 | 1015.2 |
| 20260831190904 | 26 | 322 | 3.2 | 16.1 | 0.00 | 0.00 | 0.00 | 49 | 1014.9 |
| 20260831190407 | 26 | 320 | 4.8 | 16.1 | 0.00 | 0.00 | 0.00 | 48 | 1014.8 |
| 20260831185907 | 26 | 304 | 6.4 | 14.5 | 0.00 | 0.00 | 0.00 | 47 | 1014.9 |
| 20260831185351 | 26 | 339 | 1.6 | 14.5 | 0.00 | 0.00 | 0.00 | 46 | 1014.9 |
| 20260831184851 | 26 | 320 | 1.6 | 16.1 | 0.00 | 0.00 | 0.00 | 44 | 1014.7 |
| 20260831184353 | 26 | 315 | 3.2 | 16.1 | 0.00 | 0.00 | 0.00 | 44 | 1014.8 |
| 20260831183841 | 26 | 308 | 6.4 | 11.3 | 0.00 | 0.00 | 0.00 | 43 | 1014.6 |
| 20260831183342 | 26 | 308 | 6.4 | 11.3 | 0.00 | 0.00 | 0.00 | 42 | 1014.7 |
| 20260831182843 | 27 | 322 | 1.6 | 11.3 | 0.00 | 0.00 | 0.00 | 42 | 1014.6 |
| 20260831182343 | 27 | 308 | 4.8 | 12.9 | 0.00 | 0.00 | 0.00 | 42 | 1014.7 |
| 20260831181842 | 27 | 313 | 3.2 | 12.9 | 0.00 | 0.00 | 0.00 | 42 | 1014.6 |
| 20260831181346 | 27 | 317 | 3.2 | 9.7 | 0.00 | 0.00 | 0.00 | 44 | 1014.7 |
| 20260831180843 | 27 | 318 | 1.6 | 14.5 | 0.00 | 0.00 | 0.00 | 43 | 1014.7 |
| 20260831180342 | 27 | 314 | 1.6 | 20.9 | 0.00 | 0.00 | 0.00 | 42 | 1014.5 |
| 20260831175843 | 27 | 301 | 0.0 | 20.9 | 0.00 | 0.00 | 0.00 | 41 | 1014.7 |
| 20260831175348 | 27 | 304 | 0.0 | 11.3 | 0.00 | 0.00 | 0.00 | 42 | 1014.5 |
| 20260831174841 | 27 | 332 | 1.6 | 9.7 | 0.00 | 0.00 | 0.00 | 42 | 1014.4 |
| 20260831174344 | 27 | 7 | 0.0 | 14.5 | 0.00 | 0.00 | 0.00 | 41 | 1014.6 |
| 20260831173842 | 27 | 130 | 0.0 | 14.5 | 0.00 | 0.00 | 0.00 | 41 | 1014.5 |
| 20260831172840 | 27 | 315 | 1.6 | 6.4 | 0.00 | 0.00 | 0.00 | 44 | 1014.5 |
| 20260831172326 | 28 | 312 | 3.2 | 6.4 | 0.00 | 0.00 | 0.00 | 43 | 1014.3 |
| 20260831171826 | 28 | 56 | 0.0 | 12.9 | 0.00 | 0.00 | 0.00 | 46 | 1014.4 |
| 20260831171328 | 28 | 322 | 6.4 | 12.9 | 0.00 | 0.00 | 0.00 | 46 | 1014.4 |
| 20260831170814 | 28 | 59 | 1.6 | 11.3 | 0.00 | 0.00 | 0.00 | 46 | 1014.3 |
| 20260831170322 | 28 | 338 | 0.0 | 11.3 | 0.00 | 0.00 | 0.00 | 46 | 1014.2 |
| 20260831165817 | 28 | 315 | 4.8 | 11.3 | 0.00 | 0.00 | 0.00 | 45 | 1014.3 |
| 20260831165305 | 29 | 39 | 1.6 | 11.3 | 0.00 | 0.00 | 0.00 | 45 | 1014.2 |
| 20260831164803 | 29 | 52 | 1.6 | 4.8 | 0.00 | 0.00 | 0.00 | 44 | 1014.0 |
| 20260831164305 | 29 | 91 | 1.6 | 4.8 | 0.00 | 0.00 | 0.00 | 44 | 1013.9 |
| 20260831163255 | 29 | 303 | 6.4 | 11.3 | 0.00 | 0.00 | 0.00 | 43 | 1014.1 |
| 20260831162753 | 29 | 326 | 3.2 | 11.3 | 0.00 | 0.00 | 0.00 | 43 | 1014.2 |
| 20260831162244 | 30 | 311 | 3.2 | 14.5 | 0.00 | 0.00 | 0.00 | 43 | 1014.1 |
| 20260831161246 | 30 | 317 | 3.2 | 9.7 | 0.00 | 0.00 | 0.00 | 43 | 1014.3 |
| 20260831160743 | 30 | 327 | 1.6 | 9.7 | 0.00 | 0.00 | 0.00 | 44 | 1014.1 |
| 20260831160245 | 30 | 330 | 4.8 | 12.9 | 0.00 | 0.00 | 0.00 | 44 | 1014.3 |
| 20260831155740 | 30 | 336 | 1.6 | 12.9 | 0.00 | 0.00 | 0.00 | 43 | 1014.1 |
| 20260831155241 | 30 | 320 | 1.6 | 9.7 | 0.00 | 0.00 | 0.00 | 42 | 1014.1 |
| 20260831154243 | 30 | 21 | 1.6 | 3.2 | 0.00 | 0.00 | 0.00 | 43 | 1014.1 |
| 20260831153739 | 30 | 0 | 0.0 | 3.2 | 0.00 | 0.00 | 0.00 | 41 | 1014.0 |
| 20260831152740 | 31 | 100 | 0.0 | 9.7 | 0.00 | 0.00 | 0.00 | 41 | 1014.0 |
| 20260831152241 | 31 | 329 | 8.0 | 9.7 | 0.00 | 0.00 | 0.00 | 40 | 1014.0 |
| 20260831151243 | 31 | 352 | 1.6 | 4.8 | 0.00 | 0.00 | 0.00 | 41 | 1014.3 |
| 20260831150738 | 31 | 332 | 0.0 | 11.3 | 0.00 | 0.00 | 0.00 | 43 | 1014.2 |
| 20260831150242 | 31 | 325 | 1.6 | 14.5 | 0.00 | 0.00 | 0.00 | 42 | 1014.1 |
| 20260831145742 | 31 | 315 | 6.4 | 14.5 | 0.00 | 0.00 | 0.00 | 42 | 1014.1 |
| 20260831145245 | 31 | 323 | 4.8 | 14.5 | 0.00 | 0.00 | 0.00 | 43 | 1014.2 |
| 20260831144741 | 31 | 334 | 8.0 | 14.5 | 0.00 | 0.00 | 0.00 | 43 | 1014.2 |
| 20260831144246 | 31 | 124 | 1.6 | 3.2 | 0.00 | 0.00 | 0.00 | 44 | 1014.1 |
| 20260831143739 | 32 | 22 | 1.6 | 3.2 | 0.00 | 0.00 | 0.00 | 45 | 1014.1 |
| 20260831143241 | 32 | 120 | 1.6 | 3.2 | 0.00 | 0.00 | 0.00 | 45 | 1014.0 |
| 20260831142739 | 32 | 17 | 0.0 | 6.4 | 0.00 | 0.00 | 0.00 | 46 | 1013.9 |
| 20260831142245 | 32 | 79 | 1.6 | 12.9 | 0.00 | 0.00 | 0.00 | 44 | 1013.9 |
| 20260831141242 | 32 | 70 | 0.0 | 1.6 | 0.00 | 0.00 | 0.00 | 43 | 1014.0 |
| 20260831140251 | 32 | 105 | 0.0 | 3.2 | 0.00 | 0.00 | 0.00 | 41 | 1014.0 |
| 20260831135243 | 32 | 5 | 0.0 | 3.2 | 0.00 | 0.00 | 0.00 | 43 | 1013.9 |
| 20260831134739 | 31 | 140 | 1.6 | 11.3 | 0.00 | 0.00 | 0.00 | 43 | 1014.0 |
| 20260831134242 | 31 | 28 | 1.6 | 11.3 | 0.00 | 0.00 | 0.00 | 43 | 1014.2 |
| 20260831132728 | 33 | 325 | 3.2 | 22.5 | 0.00 | 0.00 | 0.00 | 39 | 1014.0 |
| 20260831132229 | 32 | 323 | 0.0 | 9.7 | 0.00 | 0.00 | 0.00 | 40 | 1014.1 |
| 20260831131215 | 33 | 324 | 3.2 | 6.4 | 0.00 | 0.00 | 0.00 | 39 | 1014.2 |
| 20260831130714 | 32 | 347 | 1.6 | 6.4 | 0.00 | 0.00 | 0.00 | 40 | 1014.3 |
| 20260831130214 | 32 | 317 | 0.0 | 12.9 | 0.00 | 0.00 | 0.00 | 40 | 1014.0 |
| 20260831125716 | 31 | 306 | 0.0 | 12.9 | 0.00 | 0.00 | 0.00 | 42 | 1014.3 |
| 20260831124717 | 31 | 314 | 9.7 | 14.5 | 0.00 | 0.00 | 0.00 | 40 | 1014.3 |
| 20260831124220 | 32 | 322 | 3.2 | 12.9 | 0.00 | 0.00 | 0.00 | 40 | 1014.4 |
| 20260831123714 | 33 | 326 | 11.3 | 12.9 | 0.00 | 0.00 | 0.00 | 38 | 1014.4 |
| 20260831122202 | 32 | 312 | 8.0 | 11.3 | 0.00 | 0.00 | 0.00 | 40 | 1014.4 |
| 20260831121650 | 31 | 0 | 0.0 | 12.9 | 0.00 | 0.00 | 0.00 | 41 | 1014.5 |
| 20260831121149 | 31 | 322 | 1.6 | 14.5 | 0.00 | 0.00 | 0.00 | 41 | 1014.7 |
| 20260831120656 | 31 | 331 | 0.0 | 14.5 | 0.00 | 0.00 | 0.00 | 40 | 1014.5 |
| 20260831120140 | 32 | 326 | 3.2 | 9.7 | 0.00 | 0.00 | 0.00 | 39 | 1014.4 |
| 20260831115640 | 31 | 226 | 0.0 | 14.5 | 0.00 | 0.00 | 0.00 | 39 | 1014.6 |
| 20260831115138 | 31 | 311 | 1.6 | 17.7 | 0.00 | 0.00 | 0.00 | 41 | 1014.7 |
| 20260831114638 | 32 | 317 | 6.4 | 17.7 | 0.00 | 0.00 | 0.00 | 39 | 1014.6 |
| 20260831114143 | 31 | 346 | 0.0 | 16.1 | 0.00 | 0.00 | 0.00 | 42 | 1014.7 |
| 20260831113641 | 31 | 343 | 4.8 | 16.1 | 0.00 | 0.00 | 0.00 | 41 | 1014.7 |
| 20260831113141 | 32 | 303 | 4.8 | 11.3 | 0.00 | 0.00 | 0.00 | 41 | 1014.8 |
| 20260831112643 | 31 | 68 | 1.6 | 4.8 | 0.00 | 0.00 | 0.00 | 42 | 1014.9 |
| 20260831112138 | 31 | 330 | 0.0 | 11.3 | 0.00 | 0.00 | 0.00 | 43 | 1014.9 |
| 20260831111638 | 31 | 305 | 4.8 | 11.3 | 0.00 | 0.00 | 0.00 | 43 | 1014.8 |
| 20260831111141 | 31 | 312 | 3.2 | 11.3 | 0.00 | 0.00 | 0.00 | 44 | 1014.6 |
| 20260831110626 | 31 | 326 | 1.6 | 14.5 | 0.00 | 0.00 | 0.00 | 42 | 1014.8 |
| 20260831110131 | 30 | 316 | 8.0 | 14.5 | 0.00 | 0.00 | 0.00 | 43 | 1014.8 |
| 20260831105629 | 30 | 304 | 0.0 | 12.9 | 0.00 | 0.00 | 0.00 | 44 | 1014.7 |
| 20260831105126 | 30 | 313 | 6.4 | 14.5 | 0.00 | 0.00 | 0.00 | 42 | 1014.7 |
| 20260831104629 | 30 | 293 | 6.4 | 14.5 | 0.00 | 0.00 | 0.00 | 44 | 1014.9 |
| 20260831104126 | 30 | 299 | 3.2 | 12.9 | 0.00 | 0.00 | 0.00 | 44 | 1014.8 |
| 20260831103629 | 30 | 308 | 3.2 | 12.9 | 0.00 | 0.00 | 0.00 | 46 | 1014.8 |
| 20260831103130 | 30 | 318 | 3.2 | 11.3 | 0.00 | 0.00 | 0.00 | 43 | 1015.1 |
| 20260831102116 | 31 | 306 | 3.2 | 11.3 | 0.00 | 0.00 | 0.00 | 45 | 1015.0 |
| 20260831101104 | 30 | 353 | 1.6 | 9.7 | 0.00 | 0.00 | 0.00 | 47 | 1015.1 |
| 20260831100602 | 29 | 295 | 1.6 | 14.5 | 0.00 | 0.00 | 0.00 | 49 | 1015.1 |
| 20260831100055 | 28 | 310 | 6.4 | 14.5 | 0.00 | 0.00 | 0.00 | 47 | 1015.1 |
| 20260831095550 | 28 | 309 | 1.6 | 12.9 | 0.00 | 0.00 | 0.00 | 52 | 1015.2 |
| 20260831095051 | 28 | 320 | 3.2 | 16.1 | 0.00 | 0.00 | 0.00 | 51 | 1015.2 |
| 20260831094539 | 28 | 313 | 4.8 | 16.1 | 0.00 | 0.00 | 0.00 | 51 | 1015.2 |
| 20260831094038 | 28 | 306 | 4.8 | 12.9 | 0.00 | 0.00 | 0.00 | 53 | 1015.2 |
| 20260831093540 | 28 | 310 | 0.0 | 11.3 | 0.00 | 0.00 | 0.00 | 56 | 1015.1 |
| 20260831093037 | 28 | 285 | 3.2 | 14.5 | 0.00 | 0.00 | 0.00 | 55 | 1015.3 |
| 20260831092540 | 27 | 329 | 3.2 | 14.5 | 0.00 | 0.00 | 0.00 | 56 | 1015.3 |
| 20260831092040 | 28 | 309 | 4.8 | 11.3 | 0.00 | 0.00 | 0.00 | 54 | 1015.6 |
| 20260831091538 | 27 | 312 | 3.2 | 11.3 | 0.00 | 0.00 | 0.00 | 58 | 1015.5 |
| 20260831091029 | 27 | 343 | 1.6 | 11.3 | 0.00 | 0.00 | 0.00 | 58 | 1015.5 |
| 20260831090526 | 28 | 305 | 3.2 | 9.7 | 0.00 | 0.00 | 0.00 | 57 | 1015.7 |
| 20260831090027 | 27 | 12 | 0.0 | 12.9 | 0.00 | 0.00 | 0.00 | 61 | 1015.6 |
| 20260831085529 | 26 | 308 | 3.2 | 14.5 | 0.00 | 0.00 | 0.00 | 60 | 1015.8 |
| 20260831084527 | 27 | 330 | 0.0 | 11.3 | 0.00 | 0.00 | 0.00 | 60 | 1015.6 |
| 20260831084029 | 27 | 318 | 0.0 | 11.3 | 0.00 | 0.00 | 0.00 | 63 | 1015.7 |
| 20260831083525 | 26 | 321 | 0.0 | 11.3 | 0.00 | 0.00 | 0.00 | 63 | 1015.5 |
| 20260831083025 | 26 | 305 | 3.2 | 11.3 | 0.00 | 0.00 | 0.00 | 62 | 1015.6 |
| 20260831082528 | 26 | 315 | 6.4 | 11.3 | 0.00 | 0.00 | 0.00 | 61 | 1015.4 |
| 20260831082029 | 26 | 322 | 0.0 | 11.3 | 0.00 | 0.00 | 0.00 | 64 | 1015.6 |
| 20260831081525 | 26 | 326 | 4.8 | 11.3 | 0.00 | 0.00 | 0.00 | 62 | 1015.5 |
| 20260831081029 | 26 | 309 | 3.2 | 9.7 | 0.00 | 0.00 | 0.00 | 62 | 1015.7 |
| 20260831080035 | 26 | 304 | 0.0 | 9.7 | 0.00 | 0.00 | 0.00 | 65 | 1015.4 |
| 20260831075025 | 25 | 317 | 0.0 | 0.0 | 0.00 | 0.00 | 0.00 | 64 | 1015.6 |
| 20260831074527 | 24 | 317 | 0.0 | 1.6 | 0.00 | 0.00 | 0.00 | 65 | 1015.5 |
| 20260831074028 | 24 | 316 | 0.0 | 1.6 | 0.00 | 0.00 | 0.00 | 64 | 1015.7 |
| 20260831073526 | 24 | 315 | 0.0 | 0.0 | 0.00 | 0.00 | 0.00 | 67 | 1015.4 |
| 20260831073026 | 23 | 315 | 0.0 | 1.6 | 0.00 | 0.00 | 0.00 | 63 | 1015.3 |
| 20260831072528 | 22 | 315 | 0.0 | 3.2 | 0.00 | 0.00 | 0.00 | 68 | 1015.5 |
| 20260831072026 | 22 | 316 | 1.6 | 3.2 | 0.00 | 0.00 | 0.00 | 67 | 1015.6 |
| 20260831071525 | 22 | 315 | 0.0 | 1.6 | 0.00 | 0.00 | 0.00 | 68 | 1015.4 |
| 20260831071028 | 22 | 315 | 0.0 | 0.0 | 0.00 | 0.00 | 0.00 | 67 | 1015.4 |
| 20260831070526 | 21 | 315 | 0.0 | 0.0 | 0.00 | 0.00 | 0.00 | 70 | 1015.5 |
| 20260831065514 | 21 | 315 | 0.0 | 0.0 | 0.00 | 0.00 | 0.00 | 73 | 1015.5 |
| 20260831065014 | 21 | 315 | 0.0 | 0.0 | 0.00 | 0.00 | 0.00 | 73 | 1015.4 |
| 20260831064515 | 20 | 315 | 0.0 | 0.0 | 0.00 | 0.00 | 0.00 | 75 | 1015.4 |
| 20260831064005 | 20 | 315 | 0.0 | 1.6 | 0.00 | 0.00 | 0.00 | 74 | 1015.4 |
| 20260831063003 | 20 | 315 | 0.0 | 0.0 | 0.00 | 0.00 | 0.00 | 76 | 1015.7 |
| 20260831062453 | 19 | 315 | 0.0 | 0.0 | 0.00 | 0.00 | 0.00 | 77 | 1015.4 |
| 20260831061951 | 18 | 315 | 0.0 | 1.6 | 0.00 | 0.00 | 0.00 | 79 | 1015.4 |
| 20260831055939 | 18 | 315 | 0.0 | 0.0 | 0.00 | 0.00 | 0.00 | 83 | 1015.3 |
| 20260831055439 | 17 | 315 | 0.0 | 0.0 | 0.00 | 0.00 | 0.00 | 86 | 1015.2 |
| 20260831054937 | 17 | 315 | 0.0 | 0.0 | 0.00 | 0.00 | 0.00 | 85 | 1015.4 |
| 20260831054439 | 16 | 315 | 0.0 | 0.0 | 0.00 | 0.00 | 0.00 | 89 | 1015.4 |
| 20260831053937 | 16 | 315 | 0.0 | 0.0 | 0.00 | 0.00 | 0.00 | 90 | 1015.2 |
| 20260831053442 | 16 | 315 | 0.0 | 0.0 | 0.00 | 0.00 | 0.00 | 91 | 1015.2 |
| 20260831052943 | 16 | 315 | 0.0 | 0.0 | 0.00 | 0.00 | 0.00 | 91 | 1015.2 |
| 20260831051441 | 15 | 315 | 0.0 | 0.0 | 0.00 | 0.00 | 0.00 | 90 | 1015.1 |
| 20260831045426 | 15 | 316 | 0.0 | 0.0 | 0.00 | 0.00 | 0.00 | 90 | 1015.0 |
| 20260831044426 | 15 | 316 | 0.0 | 0.0 | 0.00 | 0.00 | 0.00 | 90 | 1015.0 |
| 20260831043926 | 15 | 316 | 0.0 | 0.0 | 0.00 | 0.00 | 0.00 | 90 | 1015.0 |
| 20260831043427 | 15 | 316 | 0.0 | 0.0 | 0.00 | 0.00 | 0.00 | 90 | 1015.1 |
| 20260831042929 | 15 | 316 | 0.0 | 0.0 | 0.00 | 0.00 | 0.00 | 90 | 1014.8 |
| 20260831042401 | 15 | 316 | 0.0 | 0.0 | 0.00 | 0.00 | 0.00 | 89 | 1014.7 |
| 20260831041902 | 15 | 316 | 0.0 | 0.0 | 0.00 | 0.00 | 0.00 | 89 | 1014.8 |
| 20260831041407 | 15 | 316 | 0.0 | 0.0 | 0.00 | 0.00 | 0.00 | 89 | 1014.8 |
| 20260831040402 | 15 | 316 | 0.0 | 0.0 | 0.00 | 0.00 | 0.00 | 89 | 1014.8 |
| 20260831035905 | 15 | 316 | 0.0 | 0.0 | 0.00 | 0.00 | 0.00 | 88 | 1014.7 |
| 20260831035402 | 15 | 316 | 0.0 | 0.0 | 0.00 | 0.00 | 0.00 | 89 | 1014.6 |
| 20260831034350 | 15 | 316 | 0.0 | 0.0 | 0.00 | 0.00 | 0.00 | 88 | 1014.6 |
| 20260831033854 | 15 | 316 | 0.0 | 0.0 | 0.00 | 0.00 | 0.00 | 88 | 1014.6 |
| 20260831032344 | 16 | 316 | 0.0 | 0.0 | 0.00 | 0.00 | 0.00 | 87 | 1014.5 |
| 20260831031837 | 16 | 316 | 0.0 | 0.0 | 0.00 | 0.00 | 0.00 | 87 | 1014.3 |
| 20260831031338 | 16 | 316 | 0.0 | 0.0 | 0.00 | 0.00 | 0.00 | 87 | 1014.8 |
| 20260831030841 | 16 | 316 | 0.0 | 0.0 | 0.00 | 0.00 | 0.00 | 87 | 1014.6 |
| 20260831030339 | 16 | 316 | 0.0 | 0.0 | 0.00 | 0.00 | 0.00 | 87 | 1014.8 |
| 20260831025838 | 16 | 316 | 0.0 | 0.0 | 0.00 | 0.00 | 0.00 | 86 | 1014.7 |
| 20260831025339 | 16 | 316 | 0.0 | 0.0 | 0.00 | 0.00 | 0.00 | 86 | 1014.7 |
| 20260831024844 | 16 | 316 | 0.0 | 0.0 | 0.00 | 0.00 | 0.00 | 86 | 1014.8 |
| 20260831023338 | 16 | 315 | 0.0 | 0.0 | 0.00 | 0.00 | 0.00 | 85 | 1014.6 |
| 20260831022849 | 16 | 316 | 0.0 | 0.0 | 0.00 | 0.00 | 0.00 | 85 | 1014.8 |
| 20260831022343 | 16 | 315 | 0.0 | 0.0 | 0.00 | 0.00 | 0.00 | 85 | 1014.7 |
| 20260831021838 | 16 | 316 | 0.0 | 0.0 | 0.00 | 0.00 | 0.00 | 85 | 1014.8 |
| 20260831021338 | 16 | 316 | 0.0 | 0.0 | 0.00 | 0.00 | 0.00 | 85 | 1014.8 |
| 20260831020337 | 16 | 316 | 0.0 | 0.0 | 0.00 | 0.00 | 0.00 | 85 | 1014.9 |
| 20260831015343 | 16 | 316 | 0.0 | 0.0 | 0.00 | 0.00 | 0.00 | 84 | 1014.8 |
| 20260831014837 | 16 | 316 | 0.0 | 0.0 | 0.00 | 0.00 | 0.00 | 84 | 1014.7 |
| 20260831014338 | 16 | 315 | 0.0 | 0.0 | 0.00 | 0.00 | 0.00 | 84 | 1014.7 |
| 20260831013840 | 16 | 315 | 0.0 | 0.0 | 0.00 | 0.00 | 0.00 | 83 | 1015.0 |
| 20260831013341 | 16 | 315 | 0.0 | 0.0 | 0.00 | 0.00 | 0.00 | 83 | 1015.0 |
| 20260831012837 | 16 | 315 | 0.0 | 0.0 | 0.00 | 0.00 | 0.00 | 82 | 1014.8 |
| 20260831012341 | 17 | 315 | 0.0 | 0.0 | 0.00 | 0.00 | 0.00 | 82 | 1014.9 |
| 20260831011838 | 17 | 315 | 0.0 | 0.0 | 0.00 | 0.00 | 0.00 | 81 | 1014.7 |
| 20260831010840 | 17 | 316 | 0.0 | 0.0 | 0.00 | 0.00 | 0.00 | 81 | 1014.6 |
| 20260831010341 | 17 | 315 | 0.0 | 0.0 | 0.00 | 0.00 | 0.00 | 80 | 1014.7 |
| 20260831005341 | 17 | 315 | 0.0 | 1.6 | 0.00 | 0.00 | 0.00 | 79 | 1014.8 |
| 20260831004839 | 17 | 315 | 0.0 | 1.6 | 0.00 | 0.00 | 0.00 | 79 | 1014.6 |
| 20260831004347 | 18 | 315 | 0.0 | 0.0 | 0.00 | 0.00 | 0.00 | 78 | 1014.6 |
| 20260831003833 | 18 | 315 | 0.0 | 0.0 | 0.00 | 0.00 | 0.00 | 77 | 1014.8 |
| 20260831003329 | 18 | 315 | 0.0 | 0.0 | 0.00 | 0.00 | 0.00 | 77 | 1014.6 |
| 20260831002832 | 18 | 315 | 0.0 | 0.0 | 0.00 | 0.00 | 0.00 | 76 | 1014.9 |
| 20260831001816 | 18 | 315 | 0.0 | 1.6 | 0.00 | 0.00 | 0.00 | 74 | 1014.6 |
| 20260831001318 | 18 | 315 | 0.0 | 1.6 | 0.00 | 0.00 | 0.00 | 73 | 1014.5 |
| 20260831000805 | 19 | 315 | 0.0 | 1.6 | 0.00 | 0.00 | 0.00 | 73 | 1014.7 |
| 20260831000303 | 19 | 315 | 0.0 | 1.6 | 0.00 | 0.00 | 0.00 | 72 | 1014.7 |
| 20260830235803 | 19 | 317 | 0.0 | 1.6 | 0.00 | 0.00 | 0.00 | 72 | 1014.6 |
| 20260830234750 | 19 | 317 | 0.0 | 3.2 | 0.00 | 0.00 | 0.00 | 70 | 1014.6 |
| 20260830234253 | 20 | 317 | 0.0 | 1.6 | 0.00 | 0.00 | 0.00 | 69 | 1014.8 |
| 20260830233240 | 20 | 312 | 0.0 | 3.2 | 0.00 | 0.00 | 0.00 | 68 | 1014.7 |
| 20260830232738 | 20 | 320 | 0.0 | 3.2 | 0.00 | 0.00 | 0.00 | 68 | 1014.7 |
| 20260830230740 | 20 | 326 | 0.0 | 3.2 | 0.00 | 0.00 | 0.00 | 66 | 1014.8 |
| 20260830230239 | 20 | 358 | 0.0 | 3.2 | 0.00 | 0.00 | 0.00 | 67 | 1014.9 |
| 20260830225238 | 20 | 352 | 0.0 | 4.8 | 0.00 | 0.00 | 0.00 | 66 | 1014.7 |
| 20260830224241 | 20 | 300 | 0.0 | 4.8 | 0.00 | 0.00 | 0.00 | 66 | 1014.8 |
| 20260830222738 | 20 | 308 | 0.0 | 3.2 | 0.00 | 0.00 | 0.00 | 65 | 1014.6 |
| 20260830222238 | 20 | 324 | 0.0 | 1.6 | 0.00 | 0.00 | 0.00 | 65 | 1014.5 |
| 20260830221756 | 21 | 330 | 0.0 | 0.0 | 0.00 | 0.00 | 0.00 | 65 | 1014.6 |
| 20260830221242 | 21 | 330 | 0.0 | 0.0 | 0.00 | 0.00 | 0.00 | 65 | 1014.6 |
| 20260830220740 | 21 | 345 | 0.0 | 1.6 | 0.00 | 0.00 | 0.00 | 64 | 1014.4 |
| 20260830220231 | 21 | 338 | 0.0 | 3.2 | 0.00 | 0.00 | 0.00 | 63 | 1014.3 |
| 20260830215725 | 21 | 319 | 0.0 | 3.2 | 0.00 | 0.00 | 0.00 | 63 | 1014.5 |
| 20260830215228 | 21 | 339 | 0.0 | 3.2 | 0.00 | 0.00 | 0.00 | 63 | 1014.5 |